Tracking 20040 objects as of 19-Nov-2019
Live streaming from Space Station
objects crossing your sky now

CZ-7 DEB


CZ-7 DEB is no longer on orbit


NORAD ID: 41633
Int'l Code: 2016-042K
Perigee: N/A
Apogee: N/A
Inclination: N/A
Period: N/A
Semi major axis: N/A
RCS: N/A
Launch date: June 25, 2016
Source: People's Republic of China (PRC)
Launch site: Wenchang Satellite Launch Center (WSC)
Decay date: 2016-07-03

Note: This is SATELLITE DEBRIS
aabbcc
Your satellite tracking list
Your tracking list is empty




NASA's NSSDC Master Catalog

Two Line Element Set (TLE):
1 41633U 16042K   16185.69793584  .06588423  70885-5  12991-2 0  9995
2 41633  40.9721 358.6970 0098173 245.1389 172.0706 16.18280350  1301
Source of the keplerian elements: AFSPC